Regional Weather Roundup
Issued by NWS

Home | Current Version | Previous Version | Text Only | Print | Product List | Glossary On
Versions: 1 2 3 4 5 6 7 8 9 10 11 12 13 14 15 16 17 18 19 20 21 22 23 24 25 26 27 28 29 30 31 32 33 34 35 36 37 38 39 40 41 42 43 44 45 46 47 48 49 50
969
ASUS43 KDMX 082203
RWRIA

WEATHER ROUNDUP FOR IOWA
NATIONAL WEATHER SERVICE DES MOINES IA
400 PM CST MON FEB 08 2016

NOTE: "FAIR" INDICATES FEW OR NO CLOUDS BELOW 12,000 FEET WITH NO
SIGNIFICANT WEATHER AND/OR OBSTRUCTIONS TO VISIBILITY.

* - THESE STATIONS ARE NOT NWS STATIONS...THUS NOT UNDER NWS
QUALITY CONTROL.  THEY ALSO DO NOT REPORT WEATHER SUCH
AS PRECIPITATION OR FOG.

IAZ001>003-012>014-020>022-031>034-043>046-082300-
   NORTHWEST IOWA

CITY           SKY/WX    TMP DP  RH WIND       PRES   REMARKS
CARROLL *      CLOUDY    19  12  73 NW31G43   30.04R WCI   0
CHEROKEE *     MOSUNNY   21  16  79 N24G35    30.07R HAZE    WCI   4
DENISON *      PTSUNNY   21  16  79 N18G26    30.05R WCI   6
LE MARS *      PTSUNNY   25  19  80 NW23G33   30.11R WCI  10
ORANGE CITY *  PTSUNNY   23  18  80 N20G26    30.07S WCI   8
SHELDON *      LGT SNOW  19  14  79 N23G32    30.06R WCI   2
SIOUX CITY     MOSUNNY   29  18  63 N25G40    30.09R WCI  14
SPENCER        LGT SNOW  18  10  71 NW26G39   30.06R WCI  -1
STORM LAKE *   LGT SNOW  19  14  79 NW31G40   30.04R WCI   0
$$

IAZ055>058-069>071-079>083-090>094-082300-
   SOUTHWEST IOWA

CITY           SKY/WX    TMP DP  RH WIND       PRES   REMARKS
ATLANTIC *     CLOUDY    23  16  74 N18G29    30.07R WCI   9
AUDUBON *      CLOUDY    21  14  73 N22G30    30.05R WCI   5
CLARINDA *     CLOUDY    27  19  74 N16G24    30.09R WCI  14
COUNCIL BLFS *   N/A     27  18  69 N21G30    30.08R WCI  13
CRESTON *      FLURRIES  21  14  73 NW35G43   30.03R WCI   2
HARLAN  *      FLURRIES  23  18  80 N22G29    30.10R WCI   8
LAMONI         FLURRIES  21  10  62 N30G43    30.01R WCI   3
RED OAK *      CLOUDY    28  18  64 NW23G32   30.07S WCI  14
SHENANDOAH *   PTSUNNY   30  19  64 NW24G32   30.10R WCI  16
$$

IAZ047>049-059>061-072>074-084-082300-
   CENTRAL IOWA

CITY           SKY/WX    TMP DP  RH WIND       PRES   REMARKS
AMES           LGT SNOW  17  10  74 NW29G40   30.00S VSB 1   WCI  -2
ANKENY *       FLURRIES  19  10  68 NW24G37   30.01R WCI   2
BOONE *        LGT SNOW  16  10  79 NW18G28   29.99R WCI  -1
CHARITON *     LGT SNOW  19   9  63 NW31G39   29.99R WCI   0
DES MOINES     LGT SNOW  19   9  65 NW21G40   30.01R BLWGSNOWWCI   3
GRINNELL*      LGT SNOW  17  13  84 NW26G33   29.96R WCI  -2
KNOXVILLE *    FLURRIES  19   9  63 NW26G36   29.98R WCI   1
MARSHALLTOWN   CLOUDY    16  10  77 NW26G37   29.96R WCI  -3
NEWTON *       LGT SNOW  18  12  79 NW23      29.97R WCI   0
PELLA *        PTSUNNY   19  10  68 NW25G37   29.99R WCI   2
$$

IAZ004>006-015-016-023>025-035-036-082300-
   NORTH CENTRAL IOWA

CITY           SKY/WX    TMP DP  RH WIND       PRES   REMARKS
ALGONA *       CLOUDY    18  12  79 NW26G38   29.99R WCI  -1
CLARION *      CLOUDY    16  10  79 NW31G37   29.97S WCI  -5
ESTHERVILLE    LGT SNOW  15  11  83 NW30G39   30.02R VSB 1   WCI  -5
FORT DODGE *   CLOUDY    16   9  73 NW13G25   30.02R WCI   2
MASON CITY     SNOW      14  10  84 NW30G37   29.94S VSB 1/2 WCI  -7
FOREST CITY *  LGT SNOW  16  10  79 NW25G37   29.94S WCI  -3
WEBSTER CITY * SNOW      16  12  86 NW31G39   29.97S VSB 1/4 WCI  -5
IOWA FALLS *   LGT SNOW  17  12  81 NW22G35   29.96S WCI  -1
$$

IAZ007>011-017>019-026>030-037>042-050>054-066-082300-
   NORTHEAST IOWA

CITY           SKY/WX    TMP DP  RH WIND       PRES   REMARKS
CEDAR RAPIDS   FLURRIES  17  10  74 NW26G33   29.89R WCI  -2
CHARLES CITY * CLOUDY    14  10  85 NW23G30   29.92R WCI  -5
CLINTON *      CLOUDY    22  15  75 NW18      29.82R WCI   7
DECORAH *      LGT SNOW  14   5  67 NW23G30   29.85R WCI  -5
DUBUQUE        CLOUDY    19  11  70 NW16      29.80R WCI   4
MONTICELLO *   CLOUDY    18  10  73 NW22      29.85R WCI   0
OELWEIN *      LGT SNOW  14  10  85 NW26      29.89R VSB 3/4 WCI  -6
WATERLOO       CLOUDY    15   7  70 NW20      29.93R WCI  -2
$$

IAZ064-065-067-068-078-082300-
   EAST CENTRAL IOWA

CITY           SKY/WX    TMP DP  RH WIND       PRES   REMARKS
DAVENPORT      CLOUDY    20  11  68 NW21      29.84R WCI   4
IOWA CITY      FLURRIES  18  10  71 NW17G31   29.92R WCI   3
MT. PLEASANT * CLOUDY    21  12  68 NW18G25   29.92R WCI   6
MUSCATINE *    FLURRIES  21  12  68 NW22G29   29.90R WCI   5
QUAD CITIES    CLOUDY    20  12  71 NW15G25   29.85R WCI   6
$$

IAZ062-063-075>077-085>089-095>099-082300-
   SOUTHEAST IOWA

CITY           SKY/WX    TMP DP  RH WIND       PRES   REMARKS
BURLINGTON     LGT SNOW  19  13  77 NW13G23   29.89R WCI   6
FAIRFIELD *    FLURRIES  18   9  68 NW24G33   29.93R WCI   0
FORT MADISON * FLURRIES  19  12  73 NW22G30   29.91R WCI   3
KEOKUK *       FLURRIES  21  10  63 NW18G29   29.92R WCI   6
OSKALOOSA *    FLURRIES  18  12  79 NW24G39   29.96R WCI   0
WASHINGTON *   FLURRIES  18  10  73 NW28G38   29.94R WCI  -1
$$

ABBREVIATIONS USED IN REMARKS
   TC - TEMPERATURES IN CELSIUS
  WCI - WIND CHILL INDEX
   HX - HEAT INDEX
  VSB - VISIBILITY
$$





USA.gov is the U.S. government's official web portal to all federal, state and local government web resources and services.